SQ5LTL-2 Weather Reports


time (UTC)temp
C
wind
direction
speed
KPH
gust
KPH
rain 1hr
cm
rain 24hr
cm
rain mn
cm
humidity
%
barometer
mb
20260508063529 11 251 1.6 6.4 0.00 0.18 0.03 86 1017.3
20260508063027 11 322 3.2 8.0 0.00 0.18 0.03 87 1017.4
20260508062527 11 137 3.2 6.4 0.00 0.18 0.03 87 1017.4
20260508062026 11 13 3.2 8.0 0.00 0.18 0.03 87 1017.1
20260508061523 10 43 4.8 8.0 0.00 0.18 0.03 87 1017.1
20260508061022 10 33 1.6 6.4 0.00 0.18 0.03 88 1017.1
20260508060520 10 41 3.2 6.4 0.00 0.18 0.03 88 1017.0
20260508060020 10 44 1.6 4.8 0.00 0.18 0.03 88 1017.1
20260508055517 10 118 3.2 4.8 0.00 0.18 0.03 88 1016.9
20260508055015 10 68 1.6 4.8 0.00 0.18 0.03 88 1017.0
20260508054536 10 93 1.6 6.4 0.00 0.18 0.03 88 1016.9
20260508054033 10 56 1.6 6.4 0.00 0.18 0.03 89 1016.9
20260508053532 10 53 1.6 6.4 0.00 0.18 0.03 89 1016.9
20260508053030 10 36 3.2 4.8 0.00 0.18 0.03 89 1016.8
20260508052528 10 14 3.2 6.4 0.00 0.18 0.03 89 1016.9
20260508052027 10 44 3.2 4.8 0.00 0.18 0.03 89 1016.8
20260508051525 10 14 3.2 8.0 0.00 0.18 0.03 90 1016.8
20260508051025 10 56 1.6 4.8 0.00 0.18 0.03 90 1016.8
20260508050524 10 125 1.6 4.8 0.00 0.18 0.03 91 1016.9
20260508050022 10 118 3.2 6.4 0.00 0.18 0.03 91 1016.9
20260508045519 10 53 1.6 4.8 0.00 0.18 0.03 91 1016.8
20260508045020 10 359 1.6 6.4 0.00 0.18 0.03 92 1016.8
20260508044516 10 137 1.6 4.8 0.00 0.18 0.03 93 1016.7
20260508044035 10 71 1.6 4.8 0.00 0.18 0.03 93 1016.7
20260508043535 10 78 1.6 3.2 0.00 0.18 0.03 94 1016.6
20260508043033 10 101 1.6 4.8 0.00 0.18 0.03 94 1016.7
20260508042532 10 102 1.6 6.4 0.00 0.18 0.03 94 1016.7
20260508042030 10 39 1.6 6.4 0.00 0.18 0.03 94 1016.8
20260508041529 10 25 3.2 6.4 0.00 0.18 0.03 94 1016.6
20260508041026 10 42 1.6 3.2 0.00 0.18 0.03 94 1016.6
20260508040526 10 108 1.6 4.8 0.03 0.18 0.03 94 1016.5
20260508040025 10 72 1.6 3.2 0.03 0.18 0.03 95 1016.5
20260508035522 10 97 1.6 3.2 0.03 0.18 0.03 95 1016.4
20260508035021 10 46 3.2 6.4 0.03 0.18 0.03 95 1016.4
20260508034520 10 106 1.6 4.8 0.03 0.18 0.03 95 1016.5
20260508034017 10 237 0.0 3.2 0.03 0.18 0.03 95 1016.3
20260508033517 10 106 1.6 4.8 0.03 0.18 0.03 95 1016.2
20260508033035 10 133 0.0 3.2 0.03 0.18 0.03 95 1016.2
20260508032533 10 95 1.6 4.8 0.03 0.18 0.03 95 1016.1
20260508032032 10 81 1.6 4.8 0.00 0.18 0.00 95 1016.1
20260508031530 10 55 1.6 4.8 0.00 0.18 0.00 95 1016.2
20260508031030 10 112 1.6 4.8 0.00 0.18 0.00 96 1016.1
20260508030529 10 111 0.0 3.2 0.00 0.18 0.00 96 1016.2
20260508030027 10 140 1.6 4.8 0.00 0.18 0.00 96 1016.2
20260508025524 10 130 1.6 4.8 0.00 0.18 0.00 96 1016.2
20260508025024 10 23 3.2 6.4 0.00 0.18 0.00 96 1016.2
20260508024522 10 97 1.6 4.8 0.00 0.18 0.00 96 1016.2
20260508024021 10 76 1.6 4.8 0.00 0.18 0.00 96 1016.2
20260508023519 10 55 1.6 4.8 0.00 0.18 0.00 95 1016.1
20260508023017 10 110 0.0 3.2 0.00 0.18 0.00 95 1016.0
20260508022516 10 130 0.0 3.2 0.00 0.18 0.00 95 1016.0
20260508022034 10 155 1.6 3.2 0.00 0.18 0.00 95 1015.8
20260508021533 10 101 1.6 3.2 0.00 0.18 0.00 95 1015.7
20260508021031 10 358 3.2 6.4 0.00 0.18 0.00 95 1015.6
20260508020530 10 20 3.2 6.4 0.00 0.18 0.00 95 1015.6
20260508020028 10 34 3.2 4.8 0.00 0.18 0.00 94 1015.7
20260508015527 10 100 3.2 6.4 0.00 0.18 0.00 94 1015.7
20260508015026 10 168 1.6 4.8 0.00 0.18 0.00 94 1015.9
20260508014524 10 160 0.0 3.2 0.00 0.18 0.00 94 1015.8
20260508014023 10 71 1.6 6.4 0.00 0.18 0.00 94 1015.7
20260508013521 10 170 1.6 4.8 0.00 0.18 0.00 94 1015.7
20260508013020 10 123 1.6 6.4 0.00 0.18 0.00 94 1015.8
20260508012518 10 97 1.6 6.4 0.00 0.18 0.00 94 1015.8
20260508012017 10 69 1.6 4.8 0.00 0.18 0.00 94 1015.8
20260508011536 10 119 3.2 6.4 0.00 0.18 0.00 94 1015.8
20260508011034 10 153 3.2 4.8 0.00 0.18 0.00 94 1015.7
20260508010534 10 110 3.2 6.4 0.00 0.18 0.00 94 1015.9
20260508010032 10 337 1.6 3.2 0.00 0.18 0.00 94 1015.8
20260508005529 10 14 3.2 3.2 0.00 0.18 0.00 93 1015.7
20260508005027 10 37 1.6 4.8 0.00 0.18 0.00 93 1015.8
20260508004526 10 357 1.6 3.2 0.00 0.18 0.00 93 1015.7
20260508004026 10 53 1.6 4.8 0.00 0.18 0.00 93 1015.6
20260508003523 10 53 3.2 6.4 0.00 0.18 0.00 92 1015.6
20260508003022 10 46 1.6 4.8 0.00 0.18 0.00 93 1015.6
20260508002520 10 105 3.2 4.8 0.00 0.18 0.00 93 1015.7
20260508002019 10 72 1.6 6.4 0.00 0.18 0.00 93 1015.7
20260508001519 10 90 1.6 4.8 0.00 0.18 0.00 94 1015.6
20260508001016 10 24 3.2 6.4 0.00 0.18 0.00 94 1015.7
20260508000534 10 95 1.6 4.8 0.00 0.18 0.00 95 1015.8
20260508000034 10 139 1.6 4.8 0.00 0.18 0.00 95 1015.8
20260507235532 11 126 3.2 6.4 0.00 0.18 0.00 95 1015.9
20260507235030 11 108 1.6 4.8 0.00 0.18 0.00 95 1015.8
20260507234528 11 146 0.0 3.2 0.00 0.18 0.00 94 1015.8
20260507234027 11 121 0.0 3.2 0.00 0.18 0.00 94 1015.8
20260507233526 11 110 1.6 6.4 0.00 0.18 0.00 94 1015.8
20260507233024 11 153 3.2 6.4 0.00 0.18 0.00 94 1015.8
20260507232523 11 181 1.6 3.2 0.00 0.18 0.00 94 1015.9
20260507232022 11 105 0.0 4.8 0.00 0.18 0.00 94 1016.0
20260507231520 11 6 3.2 6.4 0.00 0.18 0.00 93 1015.7
20260507231018 11 59 1.6 4.8 0.00 0.18 0.00 93 1015.8
20260507230517 11 19 3.2 6.4 0.00 0.18 0.00 93 1015.8
20260507230015 11 12 1.6 4.8 0.00 0.18 0.00 94 1015.8
20260507225535 11 93 0.0 3.2 0.00 0.18 0.00 94 1015.9
20260507225033 11 95 3.2 6.4 0.00 0.18 0.00 95 1015.8
20260507224532 11 39 1.6 6.4 0.00 0.18 0.00 96 1015.8
20260507224030 11 57 1.6 4.8 0.00 0.18 0.00 96 1015.8
20260507223528 11 32 0.0 3.2 0.00 0.18 0.00 96 1015.7
20260507223027 11 180 0.0 1.6 0.00 0.18 0.00 96 1015.6
20260507222526 11 52 1.6 6.4 0.00 0.18 0.00 96 1015.4
20260507222024 11 37 1.6 4.8 0.00 0.18 0.00 96 1015.4
20260507221523 11 330 0.0 3.2 0.00 0.18 0.00 96 1015.3
20260507221021 11 71 1.6 4.8 0.00 0.18 0.00 96 1015.1
20260507220519 11 38 1.6 4.8 0.00 0.18 0.00 96 1015.2
20260507220019 11 96 1.6 3.2 0.00 0.18 0.00 96 1015.1
20260507215516 11 42 1.6 3.2 0.00 0.18 0.18 96 1015.1
20260507215035 11 71 1.6 4.8 0.00 0.18 0.18 96 1015.0
20260507214534 11 73 0.0 3.2 0.00 0.18 0.18 96 1015.1
20260507214032 11 50 1.6 3.2 0.00 0.18 0.18 96 1015.2
20260507213531 11 64 1.6 3.2 0.00 0.18 0.18 96 1015.1
20260507213029 11 65 1.6 3.2 0.00 0.18 0.18 96 1015.1
20260507212528 11 48 0.0 3.2 0.00 0.18 0.18 95 1015.2
20260507212026 12 0.0 0.0 0.03 0.18 0.18 95 1015.1
20260507211524 12 0 1.6 3.2 0.03 0.20 0.18 95 1015.0
20260507211023 12 44 1.6 3.2 0.03 0.20 0.18 94 1015.0
20260507210522 12 63 1.6 4.8 0.03 0.20 0.18 94 1014.8
20260507210021 12 48 1.6 4.8 0.03 0.23 0.18 94 1014.8
20260507205519 12 66 1.6 3.2 0.03 0.23 0.18 94 1014.9
20260507205018 12 57 1.6 6.4 0.03 0.28 0.18 94 1014.8
20260507204516 12 63 4.8 6.4 0.03 0.28 0.18 95 1014.9
20260507204034 12 67 3.2 6.4 0.03 0.28 0.18 95 1015.0
20260507203534 12 74 1.6 3.2 0.03 0.28 0.18 95 1015.0
20260507203032 12 71 1.6 3.2 0.03 0.28 0.15 95 1015.1
20260507202531 12 78 1.6 3.2 0.03 0.28 0.15 94 1015.0
20260507202030 12 86 0.0 3.2 0.00 0.25 0.15 94 1015.0
20260507201527 12 126 0.0 3.2 0.03 0.25 0.15 94 1015.0
20260507201025 12 100 0.0 1.6 0.03 0.25 0.15 94 1014.9
20260507200524 12 0.0 1.6 0.03 0.25 0.15 94 1015.1
20260507200024 12 180 0.0 3.2 0.05 0.25 0.15 94 1015.0
20260507195521 12 84 1.6 3.2 0.05 0.25 0.15 93 1014.9
20260507195021 12 54 1.6 3.2 0.05 0.25 0.15 93 1015.0
20260507194518 12 116 1.6 3.2 0.08 0.25 0.15 92 1014.9
20260507194018 13 41 0.0 3.2 0.10 0.25 0.15 92 1014.8
20260507193535 13 90 1.6 3.2 0.13 0.25 0.15 91 1014.9
20260507193034 13 102 0.0 3.2 0.15 0.25 0.15 91 1014.7
20260507192533 13 93 1.6 3.2 0.15 0.25 0.15 91 1014.7
20260507192031 13 114 1.6 4.8 0.15 0.25 0.15 90 1014.7
20260507191530 13 52 1.6 4.8 0.13 0.23 0.13 90 1014.7
20260507191028 13 46 3.2 4.8 0.13 0.23 0.13 89 1014.6
20260507190526 13 110 1.6 4.8 0.10 0.23 0.10 89 1014.6
20260507190025 13 58 3.2 6.4 0.10 0.20 0.10 88 1014.5
20260507185524 13 356 0.0 3.2 0.10 0.20 0.10 87 1014.5
20260507185023 14 3 0.0 4.8 0.08 0.18 0.08 85 1014.4
20260507184521 14 92 3.2 4.8 0.05 0.18 0.05 83 1014.4
20260507184019 15 76 1.6 6.4 0.05 0.15 0.05 81 1014.3
20260507183518 15 7 3.2 6.4 0.03 0.13 0.03 79 1014.2
20260507183016 15 47 3.2 6.4 0.00 0.10 0.00 79 1014.2
20260507182534 15 305 1.6 3.2 0.00 0.10 0.00 78 1014.1
20260507182034 15 112 1.6 3.2 0.00 0.10 0.00 78 1013.9
20260507181532 15 26 1.6 4.8 0.00 0.10 0.00 78 1013.9
20260507181031 15 75 1.6 3.2 0.00 0.10 0.00 78 1013.9
20260507180528 15 95 1.6 4.8 0.00 0.10 0.00 78 1013.8
20260507180027 15 89 1.6 3.2 0.00 0.10 0.00 78 1013.6
20260507175527 15 97 0.0 3.2 0.00 0.10 0.00 78 1013.7
20260507175024 15 0.0 3.2 0.00 0.10 0.00 77 1013.5
20260507174523 16 35 1.6 3.2 0.00 0.10 0.00 77 1013.4
20260507174023 16 20 0.0 3.2 0.00 0.10 0.00 76 1013.3
20260507173520 16 15 0.0 3.2 0.00 0.10 0.00 76 1013.3
20260507173018 16 64 1.6 3.2 0.00 0.10 0.00 75 1013.2
20260507172518 16 67 1.6 4.8 0.00 0.10 0.00 75 1013.1
20260507172016 16 53 1.6 4.8 0.00 0.10 0.00 74 1013.1
20260507171534 16 36 1.6 4.8 0.00 0.10 0.00 74 1013.1
20260507171034 16 62 1.6 4.8 0.00 0.10 0.00 74 1013.0
20260507170531 16 45 1.6 3.2 0.00 0.10 0.00 73 1013.0
20260507170029 16 358 1.6 6.4 0.00 0.10 0.00 73 1012.8
20260507165529 16 50 1.6 4.8 0.00 0.10 0.00 73 1012.7
20260507165027 16 10 3.2 6.4 0.00 0.10 0.00 73 1012.7
20260507164526 16 26 3.2 11.3 0.00 0.10 0.00 72 1012.7
20260507164024 17 15 1.6 4.8 0.00 0.10 0.00 72 1012.6
20260507163522 17 30 3.2 9.7 0.00 0.10 0.00 72 1012.6
20260507163021 17 0 1.6 8.0 0.00 0.10 0.00 72 1012.7
20260507162520 17 43 3.2 9.7 0.00 0.10 0.00 72 1012.6
20260507162018 17 14 1.6 8.0 0.00 0.10 0.00 72 1012.6
20260507161516 17 48 1.6 6.4 0.00 0.10 0.00 71 1012.6
20260507161037 17 51 3.2 6.4 0.00 0.10 0.00 71 1012.5
20260507160535 17 61 3.2 9.7 0.00 0.10 0.00 71 1012.5
20260507160033 17 32 3.2 8.0 0.00 0.10 0.00 71 1012.5
20260507155531 17 30 3.2 8.0 0.00 0.10 0.00 71 1012.6
20260507155031 17 44 1.6 6.4 0.00 0.10 0.00 70 1012.6
20260507154529 17 30 6.4 14.5 0.00 0.10 0.00 69 1012.6
20260507154026 18 349 3.2 8.0 0.00 0.10 0.00 68 1012.6
20260507153526 18 9 3.2 14.5 0.00 0.10 0.00 68 1012.6
20260507153024 18 10 3.2 9.7 0.00 0.10 0.00 68 1012.7
20260507152522 18 360 3.2 9.7 0.00 0.10 0.00 68 1012.8
20260507152021 18 25 3.2 6.4 0.00 0.10 0.00 68 1012.7
20260507151519 18 360 4.8 9.7 0.00 0.10 0.00 68 1012.7
20260507151018 18 20 3.2 8.0 0.00 0.10 0.00 68 1012.6
20260507150517 18 8 3.2 8.0 0.00 0.10 0.00 68 1012.6
20260507150035 18 30 3.2 12.9 0.00 0.10 0.00 69 1012.6
20260507145533 18 9 3.2 8.0 0.00 0.10 0.00 69 1012.6
20260507145032 18 31 1.6 8.0 0.00 0.10 0.00 69 1012.6
20260507144532 18 8 1.6 6.4 0.00 0.10 0.00 68 1012.7
20260507144030 18 10 3.2 8.0 0.00 0.10 0.00 68 1012.5
20260507143528 18 17 1.6 6.4 0.00 0.10 0.00 68 1012.4
20260507143026 18 1 3.2 9.7 0.00 0.10 0.00 67 1012.3
20260507142524 18 355 3.2 8.0 0.00 0.10 0.00 68 1012.3
20260507142024 18 355 6.4 12.9 0.00 0.10 0.00 68 1012.3
20260507141523 18 341 1.6 4.8 0.00 0.10 0.00 67 1012.3
20260507141020 18 317 3.2 8.0 0.00 0.10 0.00 68 1012.2
20260507140518 18 21 4.8 11.3 0.00 0.10 0.00 67 1012.1
20260507140017 18 25 3.2 8.0 0.00 0.10 0.00 67 1012.2
20260507135515 18 345 4.8 9.7 0.00 0.10 0.00 67 1012.3
20260507135034 18 6 6.4 14.5 0.00 0.10 0.00 68 1012.4
20260507134533 18 359 4.8 11.3 0.00 0.10 0.00 68 1012.3
20260507134032 18 10 4.8 11.3 0.00 0.10 0.00 68 1012.2
20260507133529 18 346 3.2 8.0 0.00 0.10 0.00 68 1012.2
20260507133028 18 27 4.8 9.7 0.00 0.10 0.00 69 1012.1
20260507132526 18 335 4.8 9.7 0.00 0.10 0.00 68 1012.1
20260507132026 18 359 3.2 8.0 0.00 0.10 0.00 67 1012.1
20260507131524 18 306 3.2 11.3 0.00 0.10 0.00 67 1012.1
20260507131022 19 32 3.2 12.9 0.00 0.10 0.00 67 1012.1
20260507130521 18 314 3.2 14.5 0.00 0.10 0.00 68 1012.1
20260507130020 18 354 4.8 16.1 0.00 0.10 0.00 68 1011.9
20260507125519 18 4 3.2 8.0 0.00 0.10 0.00 68 1011.9
20260507125016 19 335 6.4 17.7 0.00 0.10 0.00 67 1012.0
20260507124535 19 13 6.4 16.1 0.00 0.10 0.00 67 1011.8
20260507124035 19 313 6.4 14.5 0.00 0.10 0.00 67 1011.8
20260507123533 19 351 4.8 11.3 0.00 0.10 0.00 66 1011.7
20260507123032 20 5 4.8 11.3 0.00 0.10 0.00 66 1011.8
20260507122530 19 348 4.8 16.1 0.00 0.10 0.00 66 1011.7
20260507122029 20 11 6.4 17.7 0.00 0.10 0.00 66 1011.8
20260507121527 19 336 3.2 9.7 0.00 0.10 0.00 68 1011.7
20260507121025 19 1 6.4 12.9 0.00 0.10 0.00 68 1011.6
20260507120523 19 4 4.8 17.7 0.00 0.10 0.00 68 1011.5
20260507120023 20 343 6.4 16.1 0.00 0.10 0.00 67 1011.4
20260507115521 20 25 3.2 8.0 0.00 0.10 0.00 67 1011.5
20260507115020 20 349 4.8 9.7 0.00 0.10 0.00 66 1011.4
20260507114519 20 356 4.8 11.3 0.00 0.10 0.00 67 1011.3
20260507114016 20 3 4.8 20.9 0.00 0.10 0.00 65 1011.3
20260507113535 21 287 4.8 9.7 0.00 0.10 0.00 61 1011.2
20260507113033 22 215 4.8 11.3 0.00 0.10 0.00 59 1011.0
20260507112531 21 291 3.2 9.7 0.00 0.10 0.00 59 1011.0
20260507112030 21 303 3.2 9.7 0.00 0.10 0.00 59 1011.0
20260507111529 21 212 4.8 8.0 0.00 0.10 0.00 59 1011.0
20260507111027 21 307 3.2 8.0 0.00 0.10 0.00 60 1011.0
20260507110526 21 246 4.8 8.0 0.00 0.10 0.00 60 1010.8
20260507110026 21 256 6.4 11.3 0.00 0.10 0.00 59 1010.8
20260507105524 21 283 3.2 8.0 0.00 0.10 0.00 58 1010.7
20260507105021 22 242 4.8 11.3 0.00 0.10 0.00 58 1010.7
20260507104521 22 239 4.8 11.3 0.00 0.10 0.00 56 1010.6
20260507104020 22 222 4.8 12.9 0.00 0.10 0.00 57 1010.6
20260507103518 21 222 4.8 14.5 0.00 0.10 0.00 57 1010.4
20260507103016 21 215 4.8 9.7 0.00 0.10 0.00 58 1010.5
20260507102535 21 219 4.8 8.0 0.00 0.10 0.00 59 1010.5
20260507102033 21 218 6.4 12.9 0.00 0.10 0.00 58 1010.4
20260507101531 22 226 4.8 12.9 0.00 0.10 0.00 57 1010.3
20260507101030 21 329 3.2 8.0 0.00 0.10 0.00 57 1010.3
20260507100528 21 270 4.8 9.7 0.00 0.10 0.00 57 1010.3
20260507100027 21 255 4.8 9.7 0.00 0.10 0.00 57 1010.2
20260507095527 22 220 4.8 11.3 0.00 0.10 0.00 57 1010.3
20260507095025 22 238 4.8 9.7 0.00 0.10 0.00 56 1010.2
20260507094523 21 261 4.8 11.3 0.00 0.10 0.00 57 1010.2
20260507094021 21 212 6.4 14.5 0.00 0.10 0.00 59 1010.3
20260507093520 21 217 3.2 8.0 0.00 0.10 0.00 59 1010.2
20260507093018 21 210 4.8 12.9 0.00 0.10 0.00 59 1010.2
20260507092517 21 217 1.6 4.8 0.00 0.10 0.00 59 1010.1
20260507092036 21 209 4.8 8.0 0.00 0.10 0.00 59 1010.1
20260507091534 21 208 3.2 8.0 0.00 0.10 0.00 59 1010.0
20260507091033 21 222 3.2 8.0 0.00 0.10 0.00 60 1010.0
20260507090531 21 223 4.8 14.5 0.00 0.10 0.00 58 1010.0
20260507090030 21 224 4.8 17.7 0.00 0.10 0.00 58 1010.0
20260507085528 21 211 1.6 6.4 0.00 0.10 0.00 62 1009.7
20260507085026 21 170 4.8 12.9 0.00 0.10 0.00 64 1009.6
20260507084525 21 182 8.0 11.3 0.00 0.10 0.00 63 1009.6
20260507084023 21 184 6.4 12.9 0.00 0.10 0.00 62 1009.6
20260507083523 21 179 8.0 12.9 0.00 0.10 0.00 64 1009.5
20260507083020 21 184 4.8 12.9 0.00 0.10 0.00 64 1009.6
20260507082519 20 200 8.0 16.1 0.00 0.10 0.00 65 1009.5
20260507082017 20 216 6.4 12.9 0.00 0.10 0.00 66 1009.5
20260507081516 20 193 4.8 14.5 0.00 0.10 0.00 67 1009.5
20260507081035 20 195 6.4 9.7 0.00 0.10 0.00 67 1009.6
20260507080533 20 176 4.8 11.3 0.00 0.10 0.00 68 1009.6
20260507080033 20 174 4.8 12.9 0.00 0.10 0.00 69 1009.6
20260507075530 19 167 6.4 9.7 0.00 0.10 0.00 70 1009.5
20260507075029 19 184 4.8 9.7 0.00 0.10 0.00 71 1009.5
20260507074527 18 157 8.0 14.5 0.00 0.10 0.00 71 1009.7
20260507074027 18 185 8.0 14.5 0.00 0.10 0.00 72 1009.6
20260507073525 18 176 8.0 14.5 0.00 0.10 0.00 72 1009.5
20260507073023 18 185 6.4 12.9 0.00 0.10 0.00 72 1009.5
20260507072521 18 182 6.4 9.7 0.00 0.10 0.00 74 1009.5
20260507072020 18 164 8.0 16.1 0.00 0.10 0.00 75 1009.5
20260507071519 17 170 6.4 12.9 0.00 0.10 0.00 75 1009.4
20260507071017 17 175 4.8 8.0 0.00 0.10 0.00 76 1009.4
20260507070517 17 192 3.2 6.4 0.00 0.10 0.00 77 1009.3
20260507070034 17 173 4.8 9.7 0.00 0.10 0.00 76 1009.4
20260507065532 17 206 3.2 6.4 0.00 0.10 0.00 76 1009.1
20260507065031 17 209 4.8 6.4 0.00 0.10 0.00 76 1009.1
20260507064530 17 158 4.8 11.3 0.00 0.10 0.00 77 1009.1
20260507064040 16 160 6.4 11.3 0.00 0.10 0.00 79 1009.2